Regional Weather Roundup
Issued by NWS

Current Version | Previous Version | Text Only | Print | Product List | Glossary On
Versions: 1 2 3 4 5 6 7 8 9 10 11 12 13 14 15 16 17 18 19 20 21 22 23 24 25 26 27 28 29 30 31 32 33 34 35 36 37 38 39 40 41 42 43 44 45 46 47 48 49 50
000
ASUS44 KLIX 011210
RWRLA
LOUISIANA WEATHER ROUNDUP
NATIONAL WEATHER SERVICE NEW ORLEANS LA
700 AM CDT SAT NOV 01 2014

NOTE: "FAIR" INDICATES FEW OR NO CLOUDS BELOW 12,000 FEET WITH NO
      SIGNIFICANT WEATHER AND/OR OBSTRUCTIONS TO VISIBILITY.
      SKY/WX - SKY CONDITION AND SIGNIFICANT WEATHER.
      TMP - AIR TEMPERATURE.    DP   - DEWPOINT TEMPERATURE.
      RH  - RELATIVE HUMIDITY.  PRES - PRESSURE.
      HX  - HEAT INDEX.         WCI  - WIND CHILL INDEX.

*  THESE STATIONS ARE NOT NWS OR FAA STATIONS AND ARE NOT UNDER
   NWS QUALITY CONTROL.

LAZ040-048-061>063-065-066-069-011300-
SOUTHEAST LOUISIANA

CITY           SKY/WX    TMP DP  RH WIND       PRES   REMARKS
N.O. AUDUBON     N/A    N/A N/A N/A MISG        N/A
                   6HR MAX TEMP:  58;

N.O. INTL ARPT NOT AVBL
N.O. LAKEFRONT CLEAR     48  31  51 NE29G37   30.31R
6HR MIN TEMP:  48; 6HR MAX TEMP:  59;

N.O. DOWNTOWN* FAIR      46  21  36 N10G17    30.31R
6HR MIN TEMP:  46; 6HR MAX TEMP:  57;

SLIDELL        CLEAR     38  26  62 N3        30.30R
6HR MIN TEMP:  38; 6HR MAX TEMP:  52;

BATON ROUGE    CLEAR     39  27  62 CALM      30.34R
6HR MIN TEMP:  38; 6HR MAX TEMP:  53;

BOOTHVILLE     CLEAR     50  36  58 N15G24    30.27R
6HR MIN TEMP:  50; 6HR MAX TEMP:  59;

BELLE CHASSE   CLEAR     45  23  42 N16G24    30.30R
6HR MIN TEMP:  45; 6HR MAX TEMP:  57;

BOGALUSA*        N/A     38  26  62 N6        30.32R WCI  34
6HR MIN TEMP:  37; 6HR MAX TEMP:  52;

NEW ROADS*     FAIR      38  27  66 N8        30.35R WCI  32
6HR MIN TEMP:  38; 6HR MAX TEMP:  51;

GONZALES*      FAIR      42  24  48 N5        30.32R
6HR MIN TEMP:  42; 6HR MAX TEMP:  55;

HAMMOND*       CLEAR     37  25  60 CALM      30.34R
HOUMA*         CLEAR     43  27  52 N9        30.30R
PORT FOURCHON* NOT AVBL

$$

LAZ041-044-053-054-011300-
SOUTHWEST LOUISIANA

CITY           SKY/WX    TMP DP  RH WIND       PRES   REMARKS
LAKE CHARLES   CLEAR     44  31  60 NE8       30.36R
6HR MIN TEMP:  44; 6HR MAX TEMP:  57;

LAFAYETTE      CLEAR     41  28  60 NE8       30.34R
6HR MIN TEMP:  41; 6HR MAX TEMP:  55;

PATTERSON      CLEAR     45  23  42 NE18G25   30.35
6HR MIN TEMP:  45; 6HR MAX TEMP:  55;

SALT POINT       N/A     47  29  49 VRB7      30.32R
6HR MIN TEMP:  47; 6HR MAX TEMP:  57;

NEW IBERIA     CLEAR     45  27  49 N10       30.35R
6HR MIN TEMP:  45; 6HR MAX TEMP:  55;

CHENAULT AIRPK CLEAR     43  32  65 N5        30.36R

$$

LAZ027-028-011300-
CENTRAL LOUISIANA

CITY           SKY/WX    TMP DP  RH WIND       PRES   REMARKS
FORT POLK      CLEAR     39  31  73 N5        30.37R
6HR MIN TEMP:  39; 6HR MAX TEMP:  52;

ALEXANDRIA INT CLEAR     38  30  73 NE6       30.36R WCI  33
6HR MIN TEMP:  37; 6HR MAX TEMP:  52;

ALEXANDRIA     CLEAR     39  29  67 CALM      30.38R
6HR MIN TEMP:  38; 6HR MAX TEMP:  50;


$$

LAZ001-002-011300-
NORTHWEST LOUISIANA

CITY           SKY/WX    TMP DP  RH WIND       PRES   REMARKS
SHREVEPORT     CLEAR     39  26  59 NE7       30.42R WCI  34
6HR MIN TEMP:  39; 6HR MAX TEMP:  50;

BARKSDALE AFB  CLEAR     34  27  74 N5        30.43R WCI  30
6HR MIN TEMP:  34; 6HR MAX TEMP:  48;

DTN SHREVEPORT CLEAR     38  26  62 NE6       30.44R WCI  33
6HR MIN TEMP:  38; 6HR MAX TEMP:  48;


$$

LAZ014-016-011300-
NORTHEAST LOUISIANA

CITY           SKY/WX    TMP DP  RH WIND       PRES   REMARKS
MONROE         CLEAR     37  27  67 N8        30.41R WCI  31
6HR MIN TEMP:  37; 6HR MAX TEMP:  46;

TALLULAH       CLEAR     39  26  59 N13       30.38R WCI  31
6HR MIN TEMP:  38; 6HR MAX TEMP:  44;


$$




USA.gov is the U.S. government's official web portal to all federal, state and local government web resources and services.